QPF
0.03 0.03 0.02 0.01 0.01 0.01 0.01 0.01 0.00 0.00 0.00 0.00 0.00 0.00 0.00 0.00 0.00 0.00 0.00 0.01 0.01 0.01 0.01 0.01 0.01 0.01 0.01 0.01 0.01 0.01 0.01 0.01 0.01 0.01 0.01 0.02 0.03 0.04
0.02 0.02 0.01 0.01 0.01 0.01 0.01 0.01 0.01 0.00 0.00 0.00 0.00 0.00 0.00 0.00 0.00 0.00 0.00 0.01 0.01 0.01 0.01 0.01 0.01 0.01 0.01 0.01 0.01 0.01 0.01 0.01 0.01 0.01 0.01 0.01 0.01 0.01
0.01 0.01 0.01 0.01 0.01 0.02 0.01 0.01 0.01 0.01 0.00 0.00 0.00 0.00 0.00 0.00 0.00 0.00 0.00 0.00 0.00 0.01 0.01 0.01 0.01 0.01 0.01 0.01 0.01 0.01 0.01 0.01 0.01 0.01 0.01 0.01 0.01 0.01
0.01 0.01 0.01 0.01 0.01 0.01 0.01 0.01 0.01 0.01 0.00 0.00 0.00 0.00 0.00 0.00 0.00 0.00 0.00 0.00 0.00 0.01 0.01 0.01 0.01 0.01 0.01 0.01 0.01 0.01 0.01 0.01 0.01 0.01 0.01 0.01 0.01 0.01
0.01 0.01 0.01 0.01 0.01 0.02 0.01 0.01 0.01 0.01 0.01 0.00 0.00 0.00 0.00 0.00 0.00 0.00 0.00 0.00 0.00 0.01 0.01 0.01 0.01 0.01 0.01 0.01 0.01 0.01 0.01 0.01 0.01 0.01 0.01 0.01 0.00 0.01
0.01 0.01 0.01 0.01 0.01 0.01 0.02 0.01 0.01 0.01 0.01 0.01 0.00 0.00 0.00 0.00 0.00 0.00 0.00 0.00 0.00 0.00 0.01 0.00 0.00 0.00 0.00 0.00 0.00 0.01 0.01 0.01 0.01 0.01 0.01 0.01 0.00 0.00
0.01 0.01 0.01 0.01 0.01 0.01 0.01 0.01 0.01 0.01 0.02 0.02 0.01 0.01 0.00 0.00 0.00 0.00 0.01 0.01 0.01 0.01 0.01 0.01 0.00 0.00 0.00 0.00 0.00 0.00 0.01 0.01 0.01 0.01 0.01 0.01 0.01 0.00
0.00 0.00 0.00 0.01 0.01 0.01 0.01 0.01 0.01 0.01 0.02 0.02 0.02 0.01 0.00 0.00 0.00 0.00 0.00 0.01 0.01 0.01 0.01 0.00 0.00 0.00 0.00 0.00 0.00 0.00 0.01 0.01 0.01 0.01 0.01 0.01 0.01 0.01
0.00 0.00 0.00 0.00 0.01 0.01 0.01 0.01 0.01 0.01 0.01 0.02 0.02 0.02 0.01 0.00 0.00 0.00 0.00 0.01 0.01 0.00 0.00 0.00 0.00 0.00 0.00 0.00 0.00 0.00 0.01 0.01 0.01 0.01 0.01 0.01 0.01 0.01
0.00 0.00 0.00 0.00 0.01 0.01 0.01 0.01 0.01 0.01 0.01 0.01 0.01 0.02 0.01 0.01 0.01 0.01 0.01 0.01 0.01 0.01 0.00 0.01 0.00 0.00 0.00 0.00 0.00 0.01 0.01 0.01 0.01 0.01 0.01 0.01 0.01 0.01
0.00 0.00 0.00 0.00 0.01 0.01 0.01 0.01 0.01 0.01 0.01 0.01 0.02 0.02 0.02 0.02 0.02 0.02 0.01 0.01 0.01 0.01 0.00 0.01 0.00 0.01 0.01 0.00 0.00 0.01 0.01 0.01 0.01 0.02 0.02 0.01 0.01 0.02
0.00 0.00 0.01 0.01 0.01 0.01 0.01 0.02 0.02 0.01 0.01 0.01 0.01 0.01 0.01 0.01 0.02 0.02 0.02 0.02 0.02 0.01 0.00 0.01 0.01 0.01 0.01 0.01 0.01 0.00 0.01 0.01 0.01 0.01 0.02 0.02 0.02 0.02
0.01 0.01 0.01 0.01 0.02 0.02 0.02 0.02 0.02 0.02 0.02 0.01 0.01 0.01 0.01 0.01 0.01 0.01 0.01 0.02 0.03 0.02 0.01 0.01 0.02 0.01 0.01 0.01 0.01 0.01 0.01 0.01 0.01 0.01 0.01 0.02 0.02 0.03
0.01 0.01 0.01 0.02 0.02 0.03 0.02 0.02 0.02 0.03 0.02 0.02 0.02 0.01 0.01 0.01 0.01 0.01 0.01 0.01 0.02 0.02 0.02 0.02 0.03 0.02 0.02 0.01 0.01 0.01 0.01 0.01 0.01 0.01 0.01 0.01 0.02 0.03
0.01 0.01 0.02 0.02 0.03 0.03 0.03 0.03 0.03 0.02 0.02 0.02 0.02 0.01 0.01 0.01 0.01 0.01 0.01 0.01 0.01 0.01 0.02 0.02 0.02 0.02 0.02 0.02 0.01 0.01 0.02 0.01 0.01 0.01 0.01 0.01 0.02 0.02
0.01 0.02 0.02 0.03 0.03 0.03 0.03 0.03 0.03 0.03 0.03 0.02 0.02 0.01 0.02 0.01 0.01 0.01 0.01 0.01 0.01 0.01 0.01 0.01 0.01 0.02 0.03 0.03 0.02 0.02 0.02 0.02 0.01 0.02 0.02 0.01 0.02 0.02
0.01 0.01 0.02 0.02 0.02 0.01 0.02 0.02 0.03 0.03 0.03 0.02 0.02 0.01 0.01 0.01 0.01 0.01 0.02 0.02 0.02 0.01 0.01 0.01 0.01 0.02 0.03 0.04 0.04 0.03 0.02 0.02 0.02 0.02 0.02 0.02 0.02 0.02
0.02 0.02 0.01 0.01 0.01 0.01 0.02 0.02 0.02 0.02 0.02 0.02 0.02 0.02 0.02 0.02 0.02 0.01 0.01 0.02 0.02 0.02 0.02 0.02 0.03 0.03 0.03 0.03 0.03 0.03 0.03 0.02 0.03 0.03 0.02 0.02 0.02 0.02
0.01 0.01 0.01 0.01 0.01 0.01 0.01 0.01 0.01 0.01 0.02 0.02 0.02 0.02 0.02 0.02 0.02 0.02 0.02 0.02 0.02 0.02 0.02 0.02 0.03 0.04 0.04 0.04 0.03 0.02 0.02 0.02 0.02 0.03 0.03 0.02 0.02 0.02
0.01 0.00 0.00 0.01 0.01 0.01 0.01 0.01 0.01 0.01 0.02 0.02 0.02 0.02 0.02 0.02 0.02 0.02 0.02 0.02 0.02 0.02 0.02 0.02 0.02 0.03 0.04 0.04 0.03 0.02 0.01 0.02 0.02 0.02 0.03 0.02 0.02 0.02
0.00 0.00 0.00 0.01 0.01 0.01 0.01 0.01 0.01 0.02 0.02 0.02 0.02 0.02 0.02 0.02 0.03 0.02 0.02 0.03 0.03 0.02 0.02 0.01 0.01 0.03 0.04 0.05 0.04 0.03 0.02 0.02 0.02 0.02 0.03 0.03 0.03 0.02
0.00 0.01 0.01 0.01 0.01 0.01 0.01 0.01 0.02 0.02 0.02 0.01 0.02 0.02 0.02 0.02 0.02 0.02 0.02 0.03 0.02 0.02 0.02 0.02 0.02 0.03 0.04 0.04 0.03 0.03 0.02 0.02 0.02 0.02 0.02 0.03 0.03 0.03
0.01 0.01 0.01 0.01 0.01 0.01 0.01 0.01 0.02 0.02 0.02 0.02 0.01 0.02 0.02 0.02 0.02 0.02 0.02 0.02 0.02 0.02 0.02 0.02 0.03 0.03 0.03 0.03 0.03 0.02 0.03 0.03 0.03 0.03 0.03 0.03 0.02 0.01
MSLP
1020.51 1020.88 1021.21 1021.48 1021.69 1021.85 1021.96 1022.06 1022.16 1022.29 1022.46 1022.65 1022.86 1023.07 1023.25 1023.39 1023.47 1023.50 1023.47 1023.42 1023.34 1023.27 1023.23 1023.20 1023.21 1023.25 1023.29 1023.35 1023.39 1023.41 1023.41 1023.39 1023.33 1023.24 1023.13 1022.99 1022.82 1022.64
1020.31 1020.67 1021.00 1021.26 1021.45 1021.58 1021.67 1021.75 1021.84 1021.97 1022.14 1022.36 1022.61 1022.87 1023.11 1023.31 1023.46 1023.56 1023.59 1023.59 1023.57 1023.54 1023.52 1023.53 1023.56 1023.60 1023.66 1023.71 1023.76 1023.79 1023.79 1023.77 1023.72 1023.65 1023.55 1023.42 1023.27 1023.10
1020.04 1020.40 1020.71 1020.96 1021.14 1021.26 1021.34 1021.41 1021.50 1021.64 1021.82 1022.06 1022.35 1022.64 1022.93 1023.19 1023.40 1023.55 1023.64 1023.69 1023.71 1023.73 1023.75 1023.78 1023.83 1023.89 1023.96 1024.02 1024.06 1024.09 1024.10 1024.09 1024.06 1024.01 1023.93 1023.83 1023.71 1023.55
1019.71 1020.06 1020.36 1020.60 1020.77 1020.89 1020.97 1021.05 1021.15 1021.29 1021.49 1021.75 1022.05 1022.38 1022.70 1023.00 1023.25 1023.44 1023.59 1023.69 1023.76 1023.82 1023.88 1023.95 1024.02 1024.10 1024.18 1024.24 1024.29 1024.33 1024.34 1024.34 1024.33 1024.30 1024.26 1024.19 1024.10 1023.97
1019.33 1019.65 1019.94 1020.17 1020.34 1020.46 1020.55 1020.64 1020.75 1020.90 1021.11 1021.38 1021.70 1022.04 1022.38 1022.70 1022.98 1023.21 1023.40 1023.55 1023.68 1023.79 1023.90 1024.01 1024.12 1024.22 1024.31 1024.39 1024.45 1024.49 1024.51 1024.52 1024.53 1024.53 1024.52 1024.49 1024.44 1024.35
1018.90 1019.19 1019.45 1019.67 1019.84 1019.96 1020.06 1020.16 1020.28 1020.44 1020.66 1020.93 1021.25 1021.59 1021.94 1022.27 1022.58 1022.84 1023.07 1023.27 1023.45 1023.62 1023.78 1023.94 1024.10 1024.24 1024.36 1024.46 1024.53 1024.57 1024.61 1024.63 1024.65 1024.67 1024.69 1024.70 1024.69 1024.64
1018.42 1018.67 1018.90 1019.10 1019.26 1019.38 1019.49 1019.59 1019.72 1019.89 1020.11 1020.38 1020.69 1021.03 1021.38 1021.71 1022.03 1022.32 1022.59 1022.84 1023.07 1023.30 1023.53 1023.75 1023.96 1024.14 1024.30 1024.43 1024.52 1024.59 1024.63 1024.67 1024.70 1024.74 1024.79 1024.82 1024.84 1024.83
1017.88 1018.08 1018.28 1018.46 1018.60 1018.72 1018.83 1018.94 1019.08 1019.25 1019.47 1019.73 1020.04 1020.37 1020.71 1021.05 1021.37 1021.69 1021.99 1022.29 1022.58 1022.87 1023.16 1023.44 1023.71 1023.95 1024.15 1024.32 1024.44 1024.53 1024.59 1024.64 1024.69 1024.75 1024.80 1024.86 1024.90 1024.91
1017.30 1017.45 1017.61 1017.76 1017.88 1017.99 1018.10 1018.22 1018.36 1018.54 1018.76 1019.02 1019.32 1019.64 1019.98 1020.33 1020.67 1021.00 1021.33 1021.67 1022.01 1022.35 1022.70 1023.05 1023.37 1023.67 1023.92 1024.13 1024.30 1024.41 1024.50 1024.57 1024.64 1024.70 1024.77 1024.84 1024.89 1024.92
1016.69 1016.79 1016.91 1017.02 1017.12 1017.23 1017.33 1017.45 1017.60 1017.79 1018.02 1018.29 1018.60 1018.93 1019.27 1019.63 1019.98 1020.33 1020.69 1021.06 1021.43 1021.82 1022.21 1022.60 1022.98 1023.33 1023.63 1023.89 1024.10 1024.25 1024.38 1024.47 1024.56 1024.64 1024.71 1024.79 1024.85 1024.88
1016.07 1016.13 1016.20 1016.28 1016.36 1016.45 1016.55 1016.68 1016.85 1017.06 1017.31 1017.60 1017.93 1018.28 1018.65 1019.02 1019.39 1019.76 1020.13 1020.52 1020.91 1021.32 1021.74 1022.16 1022.57 1022.96 1023.31 1023.61 1023.86 1024.07 1024.23 1024.36 1024.47 1024.57 1024.66 1024.74 1024.80 1024.83
1015.49 1015.50 1015.52 1015.57 1015.62 1015.70 1015.80 1015.94 1016.13 1016.37 1016.66 1016.99 1017.36 1017.75 1018.15 1018.55 1018.94 1019.33 1019.71 1020.10 1020.50 1020.91 1021.33 1021.76 1022.19 1022.60 1022.98 1023.32 1023.62 1023.87 1024.08 1024.25 1024.39 1024.52 1024.62 1024.71 1024.77 1024.79
1014.95 1014.91 1014.89 1014.89 1014.92 1014.98 1015.09 1015.25 1015.47 1015.75 1016.08 1016.47 1016.90 1017.34 1017.79 1018.22 1018.65 1019.05 1019.44 1019.83 1020.21 1020.61 1021.01 1021.43 1021.85 1022.27 1022.66 1023.03 1023.37 1023.67 1023.92 1024.14 1024.32 1024.47 1024.59 1024.68 1024.74 1024.77
1014.43 1014.34 1014.28 1014.24 1014.25 1014.30 1014.41 1014.59 1014.84 1015.17 1015.57 1016.02 1016.51 1017.03 1017.53 1018.02 1018.48 1018.91 1019.30 1019.68 1020.04 1020.41 1020.79 1021.18 1021.58 1021.98 1022.38 1022.77 1023.13 1023.46 1023.75 1024.01 1024.23 1024.40 1024.54 1024.64 1024.70 1024.72
1013.92 1013.78 1013.67 1013.60 1013.58 1013.62 1013.73 1013.93 1014.22 1014.60 1015.07 1015.59 1016.17 1016.75 1017.33 1017.87 1018.38 1018.83 1019.24 1019.61 1019.96 1020.30 1020.64 1020.99 1021.36 1021.75 1022.14 1022.53 1022.91 1023.26 1023.58 1023.86 1024.10 1024.30 1024.45 1024.55 1024.61 1024.61
1013.35 1013.18 1013.03 1012.93 1012.88 1012.91 1013.03 1013.25 1013.58 1014.01 1014.54 1015.14 1015.79 1016.45 1017.10 1017.71 1018.27 1018.76 1019.19 1019.56 1019.90 1020.22 1020.53 1020.85 1021.19 1021.56 1021.93 1022.32 1022.70 1023.06 1023.39 1023.69 1023.94 1024.14 1024.28 1024.38 1024.42 1024.41
1012.69 1012.49 1012.31 1012.18 1012.12 1012.14 1012.27 1012.51 1012.87 1013.35 1013.94 1014.61 1015.33 1016.06 1016.79 1017.46 1018.08 1018.61 1019.08 1019.47 1019.82 1020.13 1020.43 1020.74 1021.06 1021.41 1021.77 1022.14 1022.52 1022.87 1023.20 1023.49 1023.73 1023.91 1024.04 1024.11 1024.12 1024.09
1011.90 1011.67 1011.48 1011.34 1011.27 1011.30 1011.44 1011.71 1012.10 1012.62 1013.26 1013.98 1014.76 1015.56 1016.34 1017.08 1017.75 1018.34 1018.85 1019.28 1019.65 1019.99 1020.30 1020.61 1020.94 1021.28 1021.63 1022.00 1022.36 1022.71 1023.02 1023.29 1023.50 1023.65 1023.74 1023.77 1023.74 1023.66
1010.98 1010.75 1010.56 1010.42 1010.37 1010.41 1010.57 1010.85 1011.28 1011.83 1012.50 1013.26 1014.09 1014.93 1015.77 1016.56 1017.28 1017.93 1018.49 1018.97 1019.39 1019.76 1020.11 1020.46 1020.80 1021.16 1021.53 1021.89 1022.25 1022.58 1022.87 1023.11 1023.28 1023.39 1023.43 1023.40 1023.32 1023.19
1009.98 1009.76 1009.58 1009.47 1009.43 1009.50 1009.69 1010.00 1010.45 1011.03 1011.72 1012.51 1013.35 1014.22 1015.09 1015.92 1016.68 1017.38 1017.99 1018.54 1019.02 1019.46 1019.86 1020.26 1020.65 1021.04 1021.44 1021.82 1022.18 1022.50 1022.77 1022.97 1023.11 1023.17 1023.16 1023.08 1022.94 1022.75
1008.96 1008.77 1008.62 1008.54 1008.54 1008.65 1008.86 1009.21 1009.67 1010.27 1010.97 1011.76 1012.61 1013.49 1014.36 1015.21 1016.00 1016.74 1017.41 1018.01 1018.56 1019.07 1019.55 1020.02 1020.48 1020.92 1021.36 1021.77 1022.14 1022.47 1022.73 1022.91 1023.02 1023.04 1022.99 1022.85 1022.66 1022.41
1008.03 1007.87 1007.76 1007.72 1007.76 1007.90 1008.16 1008.52 1009.01 1009.61 1010.31 1011.08 1011.92 1012.78 1013.65 1014.50 1015.31 1016.07 1016.78 1017.44 1018.06 1018.64 1019.20 1019.75 1020.28 1020.79 1021.28 1021.73 1022.14 1022.48 1022.75 1022.93 1023.02 1023.02 1022.94 1022.77 1022.53 1022.24
1007.28 1007.14 1007.07 1007.07 1007.15 1007.33 1007.61 1008.00 1008.50 1009.09 1009.78 1010.53 1011.34 1012.17 1013.01 1013.84 1014.65 1015.42 1016.16 1016.87 1017.54 1018.20 1018.83 1019.46 1020.06 1020.65 1021.20 1021.70 1022.15 1022.52 1022.81 1023.01 1023.10 1023.10 1023.01 1022.83 1022.57 1022.25
Thickness
5538 5537 5536 5535 5535 5534 5533 5531 5530 5531 5533 5533 5531 5531 5529 5529 5529 5529 5529 5528 5528 5528 5528 5529 5529 5529 5529 5529 5529 5530 5530 5530 5531 5531 5531 5532 5534 5536
5527 5526 5525 5523 5522 5521 5520 5519 5518 5518 5519 5521 5519 5518 5517 5516 5516 5516 5516 5515 5515 5515 5515 5516 5516 5516 5516 5516 5516 5516 5517 5517 5518 5518 5519 5520 5521 5522
5515 5514 5513 5512 5511 5509 5508 5506 5505 5503 5505 5508 5506 5505 5504 5503 5503 5502 5501 5501 5501 5501 5501 5501 5502 5502 5502 5502 5503 5503 5503 5504 5504 5504 5505 5506 5507 5509
5504 5503 5501 5500 5499 5497 5496 5494 5493 5491 5490 5493 5494 5492 5490 5489 5488 5487 5487 5486 5486 5486 5487 5487 5487 5488 5488 5489 5489 5489 5489 5489 5490 5491 5492 5493 5494 5494
5493 5491 5490 5487 5486 5485 5483 5482 5481 5480 5478 5478 5480 5479 5477 5475 5473 5473 5472 5472 5472 5472 5473 5473 5473 5473 5473 5474 5474 5474 5475 5476 5476 5477 5477 5478 5479 5481
5481 5479 5478 5475 5474 5472 5471 5470 5468 5467 5466 5465 5466 5465 5463 5461 5458 5457 5457 5457 5457 5458 5458 5459 5458 5458 5459 5459 5460 5460 5461 5461 5462 5463 5463 5464 5465 5466
5469 5467 5466 5465 5463 5461 5460 5459 5456 5455 5453 5452 5452 5451 5450 5447 5445 5443 5443 5443 5444 5444 5444 5445 5444 5444 5444 5445 5445 5446 5447 5448 5448 5449 5449 5450 5451 5452
5456 5455 5454 5452 5451 5451 5450 5449 5447 5444 5442 5440 5440 5439 5439 5435 5432 5430 5428 5428 5430 5431 5428 5431 5430 5430 5431 5431 5432 5433 5434 5434 5435 5435 5436 5436 5437 5439
5443 5442 5442 5441 5440 5439 5439 5438 5437 5435 5433 5431 5429 5428 5426 5424 5421 5419 5416 5415 5417 5417 5415 5419 5418 5418 5418 5419 5420 5421 5421 5421 5422 5422 5422 5423 5424 5426
5432 5430 5429 5429 5429 5427 5426 5426 5425 5424 5422 5421 5420 5418 5415 5413 5410 5409 5406 5405 5405 5404 5403 5405 5407 5406 5407 5407 5408 5408 5409 5409 5409 5409 5409 5410 5411 5413
5420 5419 5418 5418 5419 5418 5416 5415 5415 5414 5412 5410 5409 5407 5405 5402 5400 5396 5394 5392 5394 5395 5392 5392 5394 5394 5396 5397 5397 5397 5397 5397 5397 5397 5397 5398 5399 5401
5409 5409 5408 5408 5408 5406 5404 5403 5404 5403 5400 5399 5397 5395 5393 5391 5389 5387 5384 5381 5382 5383 5383 5380 5380 5379 5383 5387 5386 5385 5385 5385 5384 5384 5385 5385 5386 5388
5397 5398 5397 5397 5396 5396 5394 5393 5394 5392 5390 5387 5384 5383 5381 5380 5378 5377 5374 5372 5371 5372 5372 5369 5368 5366 5366 5371 5374 5373 5373 5373 5372 5372 5372 5373 5375 5376
5388 5387 5387 5386 5386 5385 5384 5384 5383 5381 5378 5375 5373 5372 5371 5369 5368 5366 5365 5363 5362 5362 5362 5359 5357 5356 5355 5357 5360 5362 5361 5360 5360 5361 5361 5361 5363 5364
5377 5378 5377 5376 5375 5375 5374 5373 5371 5368 5366 5364 5363 5362 5361 5359 5357 5356 5355 5353 5353 5353 5352 5350 5348 5346 5345 5346 5348 5349 5349 5350 5349 5349 5350 5350 5351 5353
5366 5367 5367 5366 5365 5364 5364 5362 5359 5357 5355 5354 5353 5351 5350 5348 5347 5346 5345 5344 5343 5344 5342 5340 5339 5338 5338 5338 5338 5339 5338 5337 5339 5338 5338 5340 5341 5342
5357 5356 5355 5354 5353 5352 5352 5351 5349 5347 5345 5344 5342 5341 5340 5339 5338 5337 5335 5335 5334 5335 5334 5332 5331 5331 5331 5330 5331 5331 5330 5329 5328 5328 5328 5330 5333 5334
5348 5347 5346 5345 5344 5343 5342 5341 5339 5337 5336 5334 5333 5332 5331 5330 5329 5328 5327 5327 5327 5327 5326 5325 5324 5323 5324 5326 5325 5325 5324 5322 5321 5320 5319 5320 5325 5328
5340 5338 5337 5337 5336 5334 5333 5332 5330 5329 5327 5326 5325 5324 5323 5322 5320 5320 5320 5319 5319 5319 5319 5317 5316 5315 5316 5320 5322 5319 5317 5316 5314 5314 5314 5314 5317 5321
5331 5330 5329 5329 5328 5326 5325 5324 5323 5321 5320 5319 5318 5317 5316 5315 5314 5314 5314 5313 5313 5313 5312 5311 5310 5309 5310 5311 5312 5313 5311 5309 5308 5309 5309 5311 5312 5315
5323 5323 5322 5322 5321 5320 5319 5318 5316 5315 5314 5313 5312 5311 5309 5308 5308 5308 5308 5309 5308 5307 5307 5307 5306 5305 5303 5302 5303 5306 5306 5305 5304 5303 5304 5305 5307 5309
5317 5317 5316 5316 5315 5314 5313 5311 5310 5309 5308 5306 5306 5305 5304 5303 5303 5303 5303 5303 5302 5302 5301 5300 5299 5298 5297 5297 5298 5300 5301 5301 5301 5301 5300 5300 5299 5302
5311 5311 5311 5310 5309 5308 5307 5306 5304 5304 5302 5301 5300 5299 5299 5298 5298 5298 5297 5297 5296 5295 5294 5294 5293 5293 5292 5292 5292 5293 5294 5294 5296 5297 5298 5299 5299 5300